Regional Weather Roundup
Issued by NWS Newport/Morehead, NC

Current Version | Previous Version | Graphics & Text | Print | Product List | Glossary On
Versions: 1 2 3 4 5 6 7 8 9 10 11 12 13 14 15 16 17 18 19 20 21 22 23 24 25 26 27 28 29 30 31 32 33 34 35 36 37 38 39 40 41 42 43 44 45 46 47 48 49 50
000 ASUS42 KMHX 220322 RWRMHX WEATHER ROUNDUP FOR EASTERN NORTH CAROLINA NATIONAL WEATHER SERVICE NEWPORT/MOREHEAD CITY NC 1100 PM EDT TUE OCT 21 2014 NOTE: "FAIR" INDICATES FEW OR NO CLOUDS BELOW 12,000 FEET WITH NO SIGNIFICANT WEATHER AND/OR OBSTRUCTIONS TO VISIBILITY NCZ015>017-031-032-045>047-102-103-220400- NORTH COAST CITY SKY/WX TMP DP RH WIND PRES REMARKS EDENTON DRIZZLE 59 55 85 NW10 29.88R ELIZABETH CITY CLOUDY 63 54 72 NW10 29.86R KITTY HAWK PTCLDY 64 62 92 CALM 29.81F MANTEO PTCLDY 65 61 87 CALM 29.83F $$ NCZ045>047-081-094-103-104-220400- CENTRAL COAST CITY SKY/WX TMP DP RH WIND PRES REMARKS FRISCO CLEAR 67 61 81 W6 29.84F SWANQUARTER N/A 66 N/A N/A W3 29.79F $$ NCZ095-097-098-100-101-220400- SOUTHERN COAST CITY SKY/WX TMP DP RH WIND PRES REMARKS BEAUFORT CLEAR 68 61 78 W8 29.85F CEDAR ISLAND N/A 64 N/A N/A SW6 29.88S JACKSONVILLE PTCLDY 61 57 87 W7 29.86F PINEY ISLAND CLEAR 66 59 78 SW6 29.85F WILMINGTON PTCLDY 62 58 86 SW6 29.88S $$ NCZ011>013-027>030-043-044-078>080-089-090>093-098-220400- COASTAL PLAIN CITY SKY/WX TMP DP RH WIND PRES REMARKS AHOSKIE CLOUDY 58 47 66 CALM 29.88F CLINTON PTCLDY 64 49 59 N5 29.92R ELIZABETHTOWN PTCLDY 64 50 62 N6 29.91R GOLDSBORO PTCLDY 64 53 67 NW7 29.88S GREENVILLE MOCLDY 63 52 67 N7 29.91R HAVELOCK PTCLDY 60 57 89 SW6 29.87F KENANSVILLE PTCLDY 62 50 64 NW7 29.91R KINSTON PTCLDY 63 50 63 N7 29.89S NEW BERN MOCLDY 64 59 83 SW6 29.87S RICHLANDS CLOUDY 61 54 77 W6 29.88S ROCKY MOUNT CLOUDY 62 46 55 NW14G22 29.91R WASHINGTON CLOUDY 60 53 77 NW5 29.89R WHITEVILLE PTCLDY 63 52 67 CALM 29.90R $$ AMZ130-135-150-152-154-156-158-170-250-252-270-ANZ085-086-088-633-658-670-220400- MARINE OBSERVATIONS STATION/POSITION TIME TEMP WIND PRES WAVE SWELL AIR SEA DIR/SP/G HT/PER HT/PER (UTC) (F) (DEG/KT/KT) (MB) (FT/S) (FT/S) CHESAPEAKE LIGHT 0300 68 270/ 7/ 8 1010.5 64 E VA BEACH 0300 70 69 250/ 8/ 10 1009.6 4/ 7 3/ 7 DUCK 0300 66 69 210/ 4/ 6 1009.2 2 E DUCK 0300 N/A 2/11 10 NE DUCK 0300 71 N/A 2/ 4 2/11 OREGON INLET 0300 68 69 250/ 8/ 10 1009.8 13E OREGON INLT 0300 74 N/A 2/ 9 HATTERAS CG 0300 69 72 250/ 7/ 11 1010.7 DIAMOND BUOY 0300 72 270/ 16/ 17 1010.6 4/ 4 2/11 17 S OCRACOKE 0200 VRB 14/ 17 1010.8 CAPE LOOKOUT 0300 70 260/ 11/ 14 1010.8 BEAUFORT LAB 0300 69 71 260/ 4/ 9 1010.2 30 SE NEW RIVER 0300 73 76 260/ 17/ 19 1011.0 3/ 4 2/ 8 5 SE WRIGHTSVLE 0300 68 73 260/ 12/ 14 N/A 225 S CAPE HAT 0223 78 80 250/ 12/ 16 1012.8 3/10 2/10 41 SE CHARLESTON 0300 76 79 250/ 14/ 17 1013.0 3/ 3 2/ 9 $$

USA.gov is the U.S. government's official web portal to all federal, state and local government web resources and services.